Location: Songkhla
(7.2000°N, 100.6000°E)
Time: 20:44:40
(UTC+07:00)

ISS - Pass Details

Date: 18 April 2026
Orbit: 414 x 424 km, 51.6° (Epoch: 19 May)

Event Time Altitude Azimuth Distance (km) Brightness Sun altitude
Rises 13:59:53 0° 319° (NW) 2,367 0.3 64.3°
Reaches altitude 10° 14:02:00 10° 316° (NW) 1,503 -0.5 63.8°
Maximum altitude 14:05:20 62° 235° (SW) 479 -1.8 63.0°
Drops below altitude 10° 14:08:41 10° 153° (SSE) 1,502 -1.0 62.2°
Sets 14:10:47 0° 150° (SSE) 2,365 -0.1 61.7°
